Atlantic Bird 4A

operational
NORAD ID: 33750 Int'l Des: 2009-008 Owner: EUTSA Country: F
HEOCIRCULAR

Atlantic Bird 4Aについて

説明を読み込み中...

リアルタイム位置

3D地球を読み込み中...

次回通過

高度履歴

Altitude vs Time

uPlot chart will show altitude changes over time

軌道要素

1 33750U 09008B 26063.36572509 -.00000036 00000-0 00000+0 0 9998
2 33750 2.4285 81.7875 0006551 264.6245 336.0788 0.98943294 62329
Epoch: Mar 4, 2026 • Age: 22 hours

現在のステータス

高度 36190.0 km
速度 3.06 km/s
衛星直下点 2.36°N, 26.1°E
打ち上げ日 Feb 12, 2009
運用期間 17 years
タイプ other

技術仕様

分類 Payload
質量 4892.00 kg
乾燥質量 2500.00 kg
総質量 4892.00 kg
長さ 6.30 m
直径 2.70 m
スパン 39.00 m
形状 Box + 2 Pan
製造者 ASTT
バスタイプ Eurostar 3000
フェーズステータス Renamed
所有者/国 EUTSA/F

大規模コンステレーション

Loading constellations...